Location: Flotzheim
(48.8375°N, 10.8136°E)
Time: 04:01:26
(UTC+00:00)

CZ-2C R/B - Pass Details

Date: 23 January 2021
Orbit: 704 x 908 km, 98.1° (Epoch: 26 February)

Event Time Altitude Azimuth Distance (km) Brightness Sun altitude
Rises 16:52:52 0° 146° (SE) 3,317 6.1 -8.7°
Reaches altitude 10° 16:55:12 10° 141° (SE) 2,420 5.4 -9.1°
Maximum altitude 17:00:22 49° 68° (ENE) 1,093 3.4 -9.9°
Drops below altitude 10° 17:05:49 10° 355° (N) 2,552 5.6 -10.7°
Sets 17:08:20 0° 351° (N) 3,515 6.3 -11.1°
